"startDT [UTC]","vpos","CH4 [ppm]","stdev(CH4) [ppm]","CO2 [ppm]","stdev(CO2) [ppm]","H2O_reported [%]","stdev(H2O_reported)","CavityPressure [torr]","CavityTemp [C]","OutletValve","CH4_dry [ppm]","CO2_dry [ppm]","DasTemp [C]","EtalonTemp [C]","WarmBoxTemp [C]","MPVPosition","T_ECpre [C]","T_EC1 [C]","T_EC2 [C]","p_inlet [hPa]","p_in [hPa]","p_out [hPa]","T_inlet [C]","RH_inlet [%]","dwpt_inlet [C]","T_vent [C]","RH_vent [%]","dwpt_vent [C]","flow_vent [l min-1]","flow_inlet [l min-1]","dwpt_sample [C]","T_room [C]"
2016-09-19 00:00:00,0.0,1.94885,0.00038,392.470,0.045,0.7893,0.0023,139.998,45.000,31559.41662,1.96436,396.290,37.498,45.070,45.000,0.00,0.08,-272.87,-272.92,-8,520,-954,20.6,25.9,0.3,21.1,25.3,0.5,0.52,1.97,-0.3,27.5
2016-09-19 00:01:00,0.0,1.94888,0.00037,392.447,0.056,0.7805,0.0025,140.000,45.000,31560.97134,1.96424,396.224,37.498,45.070,45.000,0.00,0.08,-272.88,-272.91,-10,520,-954,20.6,25.5,0.1,21.1,25.1,0.4,0.52,1.83,-0.2,27.5
2016-09-19 00:02:00,0.0,1.94893,0.00043,392.353,0.041,0.7804,0.0022,140.000,45.000,31561.09961,1.96426,396.129,37.500,45.070,45.000,0.00,0.07,-272.89,-272.93,-9,521,-954,20.6,25.5,0.2,21.1,25.0,0.3,0.52,2.16,-0.3,27.5
2016-09-19 00:03:00,0.0,1.94923,0.00046,392.360,0.050,0.7803,0.0039,140.000,45.000,31559.69077,1.96456,396.132,37.500,45.070,45.000,0.00,0.08,-272.88,-272.92,-8,521,-954,20.6,25.5,0.1,21.1,25.1,0.3,0.52,1.78,-0.2,27.5
2016-09-19 00:04:00,0.0,1.94905,0.00032,392.394,0.034,0.7704,0.0027,139.999,45.000,31560.97821,1.96421,396.120,37.511,45.070,45.000,0.00,0.08,-272.88,-272.91,-9,520,-954,20.6,25.2,-0.0,21.1,24.8,0.2,0.52,2.05,-0.3,27.5
2016-09-19 00:05:00,0.0,1.94946,0.00037,392.454,0.037,0.7696,0.0021,140.000,45.000,31560.55820,1.96456,396.176,37.515,45.070,45.000,0.00,0.08,-272.88,-272.92,-9,521,-954,20.6,25.2,-0.0,21.1,24.7,0.2,0.52,2.01,-0.3,27.5
2016-09-19 00:06:00,0.0,1.94918,0.00037,392.380,0.040,0.7748,0.0025,139.999,45.000,31560.88955,1.96444,396.128,37.551,45.069,45.000,0.00,0.08,-272.88,-272.92,-8,520,-954,20.6,25.3,0.0,21.1,24.8,0.2,0.51,1.80,-0.3,27.5
2016-09-19 00:07:00,0.0,1.94900,0.00041,392.391,0.033,0.7710,0.0019,140.001,45.000,31561.79767,1.96415,396.118,37.564,45.069,45.000,0.00,0.08,-272.88,-272.90,-9,520,-954,20.6,25.2,-0.0,21.1,24.8,0.2,0.52,2.17,-0.3,27.5
2016-09-19 00:08:00,0.0,1.94887,0.00044,392.320,0.042,0.7747,0.0031,140.000,45.000,31563.36059,1.96409,396.065,37.562,45.069,45.000,0.00,0.08,-272.87,-272.91,-9,521,-954,20.6,25.4,0.0,21.1,24.8,0.2,0.52,1.80,-0.3,27.5
2016-09-19 00:09:00,0.0,1.94803,0.00025,392.319,0.030,0.7767,0.0024,139.999,45.000,31563.66669,1.96331,396.074,37.540,45.069,45.000,0.00,0.07,-272.89,-272.92,-8,521,-954,20.6,25.4,0.1,21.1,24.9,0.3,0.51,2.01,-0.3,27.5
2016-09-19 00:10:00,0.0,1.94825,0.00045,392.304,0.040,0.7763,0.0026,140.000,45.000,31564.60663,1.96347,396.059,37.545,45.069,45.000,0.00,0.07,-272.88,-272.92,-9,521,-954,20.6,25.4,0.1,21.1,24.9,0.3,0.52,2.05,-0.3,27.5
2016-09-19 00:11:00,0.0,1.94873,0.00034,392.355,0.032,0.7766,0.0024,139.997,45.000,31563.73045,1.96400,396.109,37.557,45.069,45.000,0.00,0.08,-272.87,-272.91,-9,521,-954,20.6,25.4,0.1,21.1,24.9,0.3,0.52,1.78,-0.3,27.5
2016-09-19 00:12:00,0.0,1.94916,0.00045,392.326,0.035,0.7860,0.0033,139.999,45.000,31562.53710,1.96458,396.128,37.533,45.069,45.000,0.00,0.07,-272.88,-272.91,-8,521,-954,20.6,25.8,0.3,21.1,25.1,0.4,0.52,2.16,-0.3,27.5
2016-09-19 00:13:00,0.0,1.94912,0.00053,392.338,0.041,0.7870,0.0032,140.000,45.000,31562.29863,1.96459,396.145,37.514,45.069,45.000,0.00,0.07,-272.87,-272.92,-9,521,-954,20.6,25.8,0.3,21.1,25.2,0.5,0.52,1.83,-0.3,27.5
2016-09-19 00:14:00,0.0,1.94881,0.00036,392.338,0.035,0.7855,0.0022,139.999,45.000,31563.54587,1.96428,396.136,37.528,45.070,45.000,0.00,0.08,-272.88,-272.91,-9,521,-954,20.6,25.7,0.2,21.1,25.2,0.4,0.52,1.97,-0.3,27.5
2016-09-19 00:15:00,0.0,1.94885,0.00038,392.392,0.042,0.7819,0.0020,139.998,45.000,31564.68858,1.96424,396.175,37.519,45.070,45.000,0.00,0.07,-272.88,-272.92,-8,521,-954,20.6,25.6,0.2,21.1,25.1,0.4,0.52,2.09,-0.3,27.5
2016-09-19 00:16:00,0.0,1.94802,0.00036,392.361,0.028,0.7820,0.0028,139.998,45.000,31566.10589,1.96341,396.145,37.558,45.070,45.000,0.00,0.08,-272.88,-272.92,-9,521,-954,20.6,25.6,0.2,21.1,25.1,0.4,0.51,1.77,-0.3,27.5
2016-09-19 00:17:00,0.0,1.94805,0.00033,392.305,0.025,0.7772,0.0013,140.000,45.000,31567.13853,1.96330,396.063,37.549,45.069,45.000,0.00,0.08,-272.88,-272.92,-9,521,-954,20.6,25.4,0.1,21.2,24.9,0.3,0.52,2.14,-0.3,27.5
2016-09-19 00:18:00,0.0,1.94805,0.00035,392.355,0.027,0.7789,0.0022,140.000,45.000,31566.29461,1.96334,396.120,37.562,45.069,45.000,0.00,0.08,-272.87,-272.92,-8,521,-954,20.6,25.5,0.1,21.1,24.9,0.3,0.52,1.88,-0.2,27.5
2016-09-19 00:19:00,0.0,1.94815,0.00029,392.363,0.041,0.7792,0.0022,139.998,45.000,31565.63488,1.96345,396.132,37.569,45.069,45.000,0.00,0.08,-272.89,-272.92,-9,521,-954,20.6,25.5,0.1,21.1,25.0,0.3,0.51,1.92,-0.2,27.5
2016-09-19 00:20:00,0.0,1.94834,0.00041,392.372,0.039,0.7799,0.0018,140.002,45.000,31567.17133,1.96366,396.144,37.575,45.069,45.000,0.00,0.07,-272.87,-272.91,-9,521,-954,20.6,25.5,0.1,21.1,25.0,0.3,0.52,2.12,-0.2,27.5
2016-09-19 00:21:00,0.0,1.94841,0.00040,392.382,0.030,0.7815,0.0021,139.997,45.000,31565.99312,1.96378,396.162,37.557,45.069,45.000,0.00,0.08,-272.87,-272.91,-8,521,-954,20.6,25.6,0.2,21.1,25.0,0.4,0.52,1.76,-0.3,27.5
2016-09-19 00:22:00,0.0,1.94818,0.00050,392.387,0.018,0.7843,0.0024,140.000,45.000,31566.82026,1.96360,396.181,37.532,45.069,45.000,0.00,0.07,-272.89,-272.91,-9,521,-954,20.6,25.7,0.2,21.1,25.1,0.4,0.52,2.13,-0.3,27.5
2016-09-19 00:23:00,0.0,1.94821,0.00051,392.325,0.042,0.7845,0.0022,140.000,45.000,31565.70642,1.96362,396.121,37.503,45.069,45.000,0.00,0.07,-272.88,-272.92,-9,521,-954,20.6,25.7,0.2,21.2,25.1,0.4,0.52,1.90,-0.3,27.6
2016-09-19 00:24:00,0.0,1.94822,0.00034,392.332,0.040,0.7864,0.0014,140.003,45.000,31566.96563,1.96368,396.135,37.520,45.070,45.000,0.00,0.08,-272.87,-272.91,-8,521,-954,20.6,25.8,0.3,21.1,25.2,0.4,0.52,1.89,-0.2,27.5
2016-09-19 00:25:00,0.0,1.94808,0.00041,392.283,0.036,0.7901,0.0020,139.998,45.000,31565.76770,1.96361,396.103,37.544,45.070,45.000,0.00,0.07,-272.88,-272.92,-10,521,-954,20.6,25.9,0.3,21.2,25.2,0.5,0.52,2.13,-0.2,27.5
2016-09-19 00:26:00,0.0,1.94802,0.00041,392.297,0.029,0.7883,0.0032,140.001,45.000,31566.22448,1.96352,396.113,37.513,45.070,45.000,0.00,0.07,-272.88,-272.92,-9,521,-954,20.6,25.8,0.3,21.1,25.3,0.5,0.52,1.76,-0.2,27.5
2016-09-19 00:27:00,0.0,1.94862,0.00034,392.271,0.038,0.7832,0.0026,139.999,45.000,31565.66383,1.96400,396.058,37.514,45.069,45.000,0.00,0.07,-272.88,-272.91,-8,520,-954,20.6,25.6,0.2,21.2,25.1,0.4,0.52,2.12,-0.3,27.5
2016-09-19 00:28:00,0.0,1.94851,0.00039,392.291,0.023,0.7859,0.0016,140.003,45.000,31567.42738,1.96393,396.092,37.507,45.070,45.000,0.00,0.08,-272.87,-272.92,-10,520,-954,20.6,25.7,0.2,21.1,25.2,0.5,0.52,1.92,-0.3,27.5
2016-09-19 00:29:00,0.0,1.94824,0.00053,392.315,0.042,0.7863,0.0021,139.998,45.000,31567.12153,1.96372,396.118,37.496,45.070,45.000,0.00,0.08,-272.89,-272.92,-9,521,-954,20.6,25.8,0.3,21.2,25.2,0.4,0.51,1.87,-0.3,27.6
2016-09-19 00:30:00,0.0,1.94797,0.00044,392.308,0.041,0.7864,0.0023,139.998,45.000,31566.59555,1.96344,396.110,37.493,45.070,45.000,0.00,0.08,-272.88,-272.92,-8,521,-954,20.6,25.8,0.3,21.1,25.2,0.4,0.52,2.15,-0.3,27.6
2016-09-19 00:31:00,0.0,1.94798,0.00029,392.325,0.032,0.7850,0.0014,140.000,45.000,31565.66826,1.96340,396.122,37.499,45.070,45.000,0.00,0.08,-272.87,-272.92,-10,521,-954,20.5,25.8,0.2,21.1,25.2,0.4,0.52,1.77,-0.3,27.5
2016-09-19 00:32:00,0.0,1.94780,0.00040,392.312,0.060,0.7861,0.0020,140.001,45.000,31565.22341,1.96324,396.114,37.487,45.069,45.000,0.00,0.07,-272.88,-272.92,-9,521,-954,20.5,25.8,0.2,21.1,25.2,0.4,0.52,2.06,-0.3,27.5
2016-09-19 00:33:00,0.0,1.94770,0.00043,392.196,0.110,0.7893,0.0021,139.998,45.000,31561.79031,1.96320,396.013,37.440,45.069,45.000,0.00,0.07,-272.88,-272.92,-8,520,-954,20.5,25.9,0.3,21.1,25.4,0.5,0.52,2.02,-0.3,27.5
2016-09-19 00:34:00,0.0,1.94786,0.00041,392.319,0.023,0.7838,0.0043,140.000,44.999,31560.77196,1.96327,396.112,37.406,45.069,45.000,0.00,0.08,-272.87,-272.91,-9,520,-954,20.5,25.8,0.2,21.1,25.3,0.5,0.52,1.78,-0.3,27.5
2016-09-19 00:35:00,0.0,1.94780,0.00046,392.346,0.025,0.7758,0.0017,140.000,44.999,31559.48203,1.96303,396.097,37.370,45.069,45.000,0.00,0.07,-272.89,-272.92,-9,520,-954,20.4,25.5,0.0,21.0,25.1,0.3,0.52,2.15,-0.3,27.5
2016-09-19 00:36:00,0.0,1.94797,0.00036,392.352,0.049,0.7747,0.0019,139.999,44.999,31557.57845,1.96319,396.096,37.337,45.069,45.000,0.00,0.07,-272.88,-272.92,-8,520,-954,20.4,25.6,-0.0,21.0,25.0,0.2,0.52,1.90,-0.3,27.4
2016-09-19 00:37:00,0.0,1.94794,0.00025,392.338,0.035,0.7820,0.0025,140.000,44.999,31555.56330,1.96330,396.121,37.309,45.069,45.000,0.00,0.08,-272.88,-272.92,-9,520,-954,20.4,25.9,0.1,21.0,25.2,0.3,0.52,1.86,-0.4,27.4
2016-09-19 00:38:00,0.0,1.94790,0.00038,392.338,0.032,0.7845,0.0022,139.999,44.999,31550.83605,1.96331,396.132,37.264,45.069,44.999,0.00,0.08,-272.87,-272.91,-9,520,-954,20.3,26.0,0.2,21.0,25.4,0.4,0.52,2.16,-0.4,27.4
2016-09-19 00:39:00,0.0,1.94775,0.00045,392.298,0.059,0.7872,0.0017,139.997,44.999,31546.14225,1.96321,396.105,37.227,45.069,45.000,0.00,0.07,-272.87,-272.93,-8,520,-954,20.3,26.2,0.3,20.9,25.5,0.4,0.52,1.83,-0.4,27.4
2016-09-19 00:40:00,0.0,1.94842,0.00044,392.389,0.031,0.7796,0.0034,140.001,44.999,31544.93422,1.96374,396.160,37.180,45.069,45.000,0.00,0.08,-272.88,-272.92,-8,519,-953,20.2,26.0,0.1,20.9,25.4,0.4,0.52,1.93,-0.4,27.4
2016-09-19 00:41:00,0.0,1.94827,0.00045,392.336,0.096,0.7795,0.0035,140.000,44.999,31540.64916,1.96356,396.107,37.111,45.069,45.000,0.00,0.07,-272.88,-272.91,-9,519,-953,20.2,26.0,0.1,20.9,25.3,0.3,0.53,2.14,-0.4,27.3
2016-09-19 00:42:00,0.0,1.94829,0.00040,392.287,0.057,0.7864,0.0027,140.000,44.999,31535.84454,1.96374,396.088,37.065,45.069,45.000,0.00,0.08,-272.87,-272.92,-9,519,-953,20.2,26.3,0.2,20.8,25.6,0.4,0.52,1.80,-0.4,27.3
2016-09-19 00:43:00,0.0,1.94829,0.00042,392.340,0.045,0.7817,0.0024,140.001,44.999,31533.17548,1.96368,396.123,37.015,45.069,45.000,0.00,0.07,-272.89,-272.92,-8,519,-953,20.2,26.2,0.2,20.8,25.6,0.4,0.52,1.96,-0.5,27.3
2016-09-19 00:44:00,0.0,1.94841,0.00029,392.350,0.042,0.7816,0.0021,140.002,44.999,31533.10040,1.96375,396.131,36.962,45.069,45.000,0.00,0.08,-272.88,-272.92,-9,519,-953,20.1,26.2,0.1,20.8,25.6,0.4,0.53,2.14,-0.5,27.3
2016-09-19 00:45:00,0.0,1.94851,0.00045,392.333,0.038,0.7795,0.0026,139.999,44.999,31530.35638,1.96386,396.101,36.901,45.069,45.000,0.00,0.08,-272.87,-272.92,-9,519,-953,20.1,26.2,0.1,20.8,25.6,0.3,0.52,1.80,-0.5,27.3
2016-09-19 00:46:00,0.0,1.94828,0.00030,392.262,0.059,0.7827,0.0020,140.002,44.999,31527.38452,1.96365,396.049,36.863,45.069,45.000,0.00,0.08,-272.89,-272.92,-8,519,-953,20.1,26.4,0.2,20.7,25.7,0.4,0.52,1.97,-0.5,27.3
2016-09-19 00:47:00,0.0,1.94807,0.00028,392.213,0.042,0.7911,0.0028,140.001,45.000,31524.17140,1.96361,396.038,36.816,45.070,45.000,0.00,0.08,-272.88,-272.92,-7,519,-953,20.1,26.7,0.3,20.7,25.9,0.5,0.53,2.14,-0.5,27.2
2016-09-19 00:48:00,0.0,1.94768,0.00044,392.218,0.037,0.7905,0.0031,139.999,44.999,31522.92622,1.96322,396.040,36.813,45.070,45.000,0.00,0.08,-272.87,-272.92,-9,519,-953,20.1,26.7,0.3,20.7,26.1,0.5,0.53,1.83,-0.6,27.2
2016-09-19 00:49:00,0.0,1.94800,0.00026,392.215,0.051,0.7865,0.0025,139.999,45.000,31521.28455,1.96345,396.018,36.798,45.069,45.000,0.00,0.07,-272.88,-272.91,-9,519,-953,20.0,26.6,0.2,20.7,25.9,0.5,0.52,1.89,-0.5,27.2
2016-09-19 00:50:00,0.0,1.94837,0.00039,392.297,0.041,0.7882,0.0028,139.997,45.000,31519.54275,1.96384,396.108,36.750,45.069,44.999,0.00,0.07,-272.88,-272.92,-8,519,-953,20.0,26.7,0.3,20.6,26.1,0.5,0.53,2.15,-0.6,27.2
2016-09-19 00:51:00,0.0,1.94823,0.00037,392.235,0.058,0.7896,0.0030,140.001,44.999,31517.38553,1.96380,396.055,36.697,45.069,45.000,0.00,0.08,-272.87,-272.91,-8,519,-953,20.0,26.8,0.3,20.6,26.1,0.5,0.53,1.95,-0.6,27.2
2016-09-19 00:52:00,0.0,1.94812,0.00036,392.263,0.042,0.7938,0.0030,139.997,44.999,31513.97733,1.96368,396.101,36.662,45.069,45.000,0.00,0.08,-272.88,-272.92,-9,519,-953,19.9,27.0,0.4,20.6,26.3,0.6,0.52,1.80,-0.6,27.1
2016-09-19 00:53:00,0.0,1.94825,0.00044,392.236,0.038,0.7907,0.0018,140.001,44.999,31510.89458,1.96380,396.061,36.628,45.069,45.000,0.00,0.07,-272.89,-272.92,-9,519,-952,19.9,27.0,0.3,20.6,26.3,0.6,0.53,2.08,-0.6,27.1
2016-09-19 00:54:00,0.0,1.94865,0.00047,392.263,0.055,0.7929,0.0019,139.997,44.999,31507.95278,1.96422,396.096,36.622,45.069,44.999,0.00,0.08,-272.87,-272.92,-8,518,-952,19.9,27.1,0.4,20.5,26.4,0.6,0.53,2.08,-0.6,27.1
2016-09-19 00:55:00,0.0,1.94919,0.00041,392.390,0.037,0.7806,0.0057,140.002,45.000,31507.34078,1.96452,396.166,36.587,45.069,44.999,0.00,0.08,-272.87,-272.92,-8,518,-952,19.8,26.7,0.1,20.5,26.1,0.4,0.53,1.81,-0.6,27.1
2016-09-19 00:56:00,0.0,1.94901,0.00037,392.373,0.032,0.7811,0.0018,139.997,45.000,31504.14873,1.96439,396.151,36.557,45.069,44.999,0.00,0.08,-272.88,-272.92,-9,518,-952,19.8,26.7,0.2,20.5,26.1,0.4,0.52,1.93,-0.7,27.1
2016-09-19 00:57:00,0.0,1.94901,0.00033,392.366,0.040,0.7825,0.0019,140.002,44.999,31503.63827,1.96438,396.150,36.510,45.069,44.999,0.00,0.08,-272.88,-272.92,-9,518,-952,19.8,26.8,0.2,20.5,26.1,0.4,0.53,2.15,-0.7,27.1
2016-09-19 00:58:00,0.0,1.94906,0.00036,392.388,0.035,0.7787,0.0020,139.999,45.000,31501.70180,1.96437,396.154,36.500,45.069,45.000,0.00,0.08,-272.87,-272.91,-9,518,-952,19.8,26.6,0.1,20.5,26.1,0.4,0.53,1.95,-0.7,27.1
2016-09-19 00:59:00,0.0,1.94898,0.00043,392.339,0.035,0.7809,0.0022,140.001,45.000,31501.61296,1.96434,396.115,36.484,45.069,44.999,0.00,0.08,-272.88,-272.92,-8,518,-952,19.8,26.7,0.1,20.5,26.1,0.4,0.53,1.80,-0.7,27.1
2016-09-19 01:00:00,0.0,1.94887,0.00039,392.348,0.032,0.7836,0.0023,140.002,45.000,31503.14977,1.96427,396.138,36.464,45.069,45.000,0.00,0.08,-272.89,-272.92,-8,518,-952,19.8,26.8,0.2,20.4,26.3,0.4,0.53,2.05,-0.7,27.1
2016-09-19 01:01:00,0.0,1.94879,0.00037,392.304,0.045,0.7837,0.0043,139.999,45.000,31499.48659,1.96420,396.093,36.483,45.069,45.000,0.00,0.08,-272.88,-272.91,-8,518,-952,19.8,26.9,0.2,20.4,26.2,0.4,0.53,2.12,-0.7,27.1
2016-09-19 01:02:00,0.0,1.94868,0.00034,392.307,0.037,0.7868,0.0027,140.000,45.000,31500.62996,1.96416,396.114,36.491,45.069,45.000,0.00,0.08,-272.87,-272.92,-9,518,-952,19.8,27.0,0.2,20.4,26.4,0.5,0.53,1.84,-0.7,27.0
2016-09-19 01:03:00,0.0,1.94865,0.00031,392.305,0.032,0.7835,0.0022,140.002,45.000,31500.63496,1.96404,396.092,36.500,45.069,45.000,0.00,0.08,-272.88,-272.92,-8,518,-952,19.8,26.9,0.2,20.4,26.3,0.4,0.53,1.88,-0.7,27.0
2016-09-19 01:04:00,0.0,1.94843,0.00040,392.298,0.034,0.7864,0.0020,139.999,45.000,31499.77917,1.96387,396.102,36.495,45.069,44.999,0.00,0.08,-272.88,-272.91,-8,518,-952,19.8,27.0,0.2,20.4,26.4,0.4,0.53,2.14,-0.7,27.0
2016-09-19 01:05:00,0.0,1.94830,0.00029,392.278,0.037,0.7882,0.0023,140.001,45.000,31500.46547,1.96381,396.092,36.494,45.069,44.999,0.00,0.08,-272.87,-272.91,-8,518,-952,19.8,27.1,0.3,20.4,26.5,0.5,0.53,2.02,-0.7,27.0
2016-09-19 01:06:00,0.0,1.94836,0.00040,392.291,0.033,0.7884,0.0017,140.004,45.000,31502.19939,1.96384,396.103,36.462,45.069,44.999,0.00,0.08,-272.88,-272.92,-9,518,-952,19.8,27.1,0.3,20.4,26.5,0.5,0.53,1.80,-0.7,26.9
2016-09-19 01:07:00,0.0,1.94848,0.00035,392.341,0.094,0.7883,0.0020,140.002,45.000,31499.47529,1.96399,396.148,36.438,45.069,44.999,0.00,0.08,-272.88,-272.92,-9,518,-952,19.8,27.1,0.3,20.4,26.6,0.5,0.53,1.98,-0.7,26.9
2016-09-19 01:08:00,0.0,1.94813,0.00041,392.276,0.130,0.7878,0.0024,139.999,45.000,31497.09378,1.96361,396.094,36.424,45.069,45.000,0.00,0.08,-272.87,-272.91,-8,518,-952,19.8,27.1,0.3,20.4,26.6,0.5,0.53,2.15,-0.7,26.9
2016-09-19 01:09:00,0.0,1.94815,0.00033,392.245,0.053,0.7863,0.0022,139.999,45.000,31495.94282,1.96359,396.047,36.374,45.069,45.000,0.00,0.08,-272.87,-272.92,-7,518,-952,19.7,27.1,0.3,20.3,26.6,0.5,0.53,1.93,-0.7,26.9
2016-09-19 01:10:00,0.0,1.94853,0.00040,392.275,0.048,0.7848,0.0016,139.999,45.000,31493.10977,1.96394,396.069,36.319,45.070,45.000,0.00,0.08,-272.88,-272.92,-8,518,-952,19.7,27.1,0.2,20.3,26.5,0.5,0.53,1.81,-0.8,26.9
2016-09-19 01:11:00,0.0,1.94855,0.00046,392.291,0.023,0.7826,0.0025,139.998,45.000,31493.00588,1.96395,396.075,36.278,45.070,45.000,0.00,0.08,-272.88,-272.91,-9,517,-952,19.7,27.1,0.2,20.3,26.5,0.4,0.53,2.06,-0.8,26.8
2016-09-19 01:12:00,0.0,1.94863,0.00053,392.292,0.034,0.7838,0.0025,140.002,45.000,31492.17941,1.96401,396.081,36.249,45.070,45.000,0.00,0.08,-272.88,-272.91,-9,518,-952,19.7,27.1,0.3,20.3,26.5,0.4,0.53,2.12,-0.8,26.8
2016-09-19 01:13:00,0.0,1.94843,0.00032,392.303,0.036,0.7899,0.0019,140.000,45.000,31490.20531,1.96398,396.125,36.229,45.070,45.000,0.00,0.08,-272.88,-272.92,-8,517,-952,19.7,27.4,0.3,20.3,26.8,0.5,0.53,1.89,-0.8,26.8
2016-09-19 01:14:00,0.0,1.94819,0.00044,392.270,0.042,0.7910,0.0016,139.999,45.000,31489.49105,1.96371,396.095,36.200,45.070,45.000,0.00,0.08,-272.88,-272.91,-7,517,-952,19.6,27.5,0.3,20.2,26.9,0.6,0.53,1.83,-0.7,26.7
2016-09-19 01:15:00,0.0,1.94810,0.00033,392.333,0.085,0.7890,0.0019,140.000,45.000,31487.63994,1.96364,396.151,36.185,45.070,45.000,0.00,0.08,-272.88,-272.91,-8,517,-952,19.6,27.5,0.3,20.2,26.9,0.6,0.53,2.06,-0.7,26.7
2016-09-19 01:16:00,0.0,1.94814,0.00023,392.367,0.140,0.7903,0.0024,139.999,45.000,31487.91076,1.96367,396.192,36.155,45.070,45.000,0.00,0.08,-272.88,-272.92,-9,517,-952,19.6,27.6,0.4,20.2,26.9,0.6,0.53,2.12,-0.7,26.7
2016-09-19 01:17:00,0.0,1.94807,0.00029,392.257,0.043,0.7851,0.0016,139.999,45.000,31487.33837,1.96351,396.053,36.125,45.070,45.000,0.00,0.08,-272.88,-272.92,-9,517,-952,19.5,27.5,0.2,20.2,26.9,0.5,0.54,1.89,-0.6,26.7
2016-09-19 01:18:00,0.0,1.94800,0.00047,392.159,0.049,0.7858,0.0035,140.001,44.999,31483.95440,1.96344,395.961,36.097,45.070,45.000,0.00,0.08,-272.88,-272.91,-8,517,-952,19.5,27.5,0.3,20.1,26.9,0.5,0.53,1.83,-0.6,26.7
2016-09-19 01:19:00,0.0,1.94767,0.00039,392.201,0.034,0.7696,0.0030,140.000,44.999,31482.11918,1.96280,395.922,36.067,45.070,45.000,0.00,0.08,-272.88,-272.91,-7,517,-952,19.5,26.9,-0.0,20.1,26.5,0.2,0.53,2.04,-0.5,26.6
2016-09-19 01:20:00,0.0,1.94777,0.00029,392.243,0.039,0.7644,0.0029,140.000,44.999,31480.10252,1.96278,395.938,36.048,45.070,45.000,0.00,0.08,-272.88,-272.93,-8,517,-952,19.5,26.7,-0.2,20.1,26.2,0.1,0.54,2.13,-0.5,26.7
2016-09-19 01:21:00,0.0,1.94780,0.00039,392.233,0.039,0.7650,0.0025,140.001,44.999,31479.64764,1.96280,395.930,36.006,45.070,45.000,0.00,0.08,-272.87,-272.92,-8,517,-952,19.5,26.7,-0.1,20.1,26.1,0.1,0.54,1.97,-0.4,26.7
2016-09-19 01:22:00,0.0,1.94769,0.00046,392.139,0.037,0.7738,0.0024,140.000,44.999,31477.61298,1.96290,395.876,36.000,45.070,45.000,0.00,0.08,-272.87,-272.92,-8,517,-952,19.5,27.1,0.1,20.1,26.4,0.2,0.53,1.82,-0.4,26.7
2016-09-19 01:23:00,0.0,1.94827,0.00051,392.186,0.031,0.7695,0.0033,139.998,45.000,31476.42706,1.96337,395.906,35.997,45.070,45.000,0.00,0.08,-272.88,-272.92,-8,517,-952,19.5,26.9,-0.0,20.1,26.4,0.2,0.53,1.95,-0.4,26.7
2016-09-19 01:24:00,0.0,1.94853,0.00048,392.206,0.032,0.7683,0.0023,139.999,45.000,31475.74232,1.96359,395.918,35.996,45.070,45.000,0.00,0.08,-272.88,-272.92,-8,517,-952,19.6,26.9,0.0,20.1,26.3,0.2,0.54,2.14,-0.4,26.7
2016-09-19 01:25:00,0.0,1.94827,0.00034,392.246,0.025,0.7697,0.0019,140.000,45.000,31475.08186,1.96341,395.965,35.994,45.070,45.000,0.00,0.08,-272.88,-272.91,-7,517,-952,19.6,26.9,-0.0,20.1,26.3,0.2,0.54,2.05,-0.4,26.7
2016-09-19 01:26:00,0.0,1.94825,0.00037,392.198,0.028,0.7713,0.0016,139.998,45.000,31475.11970,1.96341,395.926,35.995,45.070,45.000,0.00,0.08,-272.88,-272.92,-8,517,-952,19.6,27.0,0.1,20.1,26.4,0.2,0.53,1.84,-0.3,26.6
2016-09-19 01:27:00,0.0,1.94789,0.00053,392.157,0.056,0.7769,0.0022,139.999,45.000,31476.82124,1.96316,395.912,36.001,45.070,45.000,0.00,0.08,-272.89,-272.92,-8,517,-952,19.6,27.1,0.1,20.1,26.5,0.3,0.53,1.88,-0.3,26.6
2016-09-19 01:28:00,0.0,1.94760,0.00043,392.151,0.052,0.7792,0.0022,139.999,45.000,31478.18057,1.96292,395.918,36.000,45.070,45.000,0.00,0.08,-272.88,-272.91,-8,517,-952,19.6,27.3,0.2,20.2,26.7,0.4,0.53,2.10,-0.2,26.6
2016-09-19 01:29:00,0.0,1.94796,0.00056,392.207,0.029,0.7780,0.0016,139.999,45.000,31475.30996,1.96321,395.965,36.000,45.070,45.000,0.00,0.08,-272.88,-272.92,-8,517,-952,19.6,27.2,0.2,20.1,26.6,0.4,0.54,2.10,-0.2,26.6
2016-09-19 01:30:00,0.0,1.94816,0.00045,392.202,0.042,0.7774,0.0020,140.000,45.000,31475.02192,1.96347,395.961,36.000,45.070,45.000,0.00,0.08,-272.88,-272.92,-7,517,-952,19.6,27.1,0.1,20.2,26.6,0.3,0.53,1.85,-0.2,26.6
2016-09-19 01:31:00,0.0,1.94810,0.00041,392.197,0.042,0.7776,0.0025,139.998,45.000,31477.61346,1.96339,395.955,36.001,45.070,45.000,0.00,0.08,-272.88,-272.91,-7,517,-952,19.6,27.2,0.2,20.2,26.6,0.4,0.53,1.87,-0.2,26.6
2016-09-19 01:32:00,0.0,1.94812,0.00032,392.219,0.027,0.7756,0.0021,140.000,45.000,31478.55700,1.96333,395.967,36.019,45.070,45.000,0.00,0.08,-272.87,-272.91,-8,517,-952,19.6,27.1,0.1,20.2,26.5,0.3,0.53,2.11,-0.2,26.6
2016-09-19 01:33:00,0.0,1.94806,0.00037,392.214,0.024,0.7783,0.0019,140.002,45.000,31480.08742,1.96336,395.977,36.027,45.070,45.000,0.00,0.08,-272.88,-272.92,-8,517,-952,19.6,27.2,0.2,20.2,26.6,0.4,0.53,2.09,-0.1,26.6
2016-09-19 01:34:00,0.0,1.94797,0.00040,392.199,0.029,0.7815,0.0019,140.000,45.000,31480.02184,1.96334,395.976,36.057,45.070,45.000,0.00,0.08,-272.88,-272.92,-8,517,-952,19.6,27.3,0.2,20.2,26.7,0.4,0.53,1.84,-0.2,26.6
2016-09-19 01:35:00,0.0,1.94761,0.00040,392.185,0.032,0.7823,0.0020,140.001,45.000,31481.61364,1.96298,395.967,36.103,45.070,45.000,0.00,0.08,-272.87,-272.91,-7,517,-952,19.6,27.4,0.3,20.2,26.7,0.4,0.53,1.88,-0.2,26.6
2016-09-19 01:36:00,0.0,1.94761,0.00044,392.144,0.040,0.7857,0.0017,140.001,45.000,31482.73466,1.96303,395.942,36.124,45.070,45.000,0.00,0.08,-272.88,-272.92,-7,517,-952,19.6,27.5,0.3,20.2,26.9,0.5,0.53,2.14,-0.1,26.6
2016-09-19 01:37:00,0.0,1.94747,0.00030,392.155,0.026,0.7883,0.0017,139.998,45.000,31481.93546,1.96297,395.966,36.125,45.070,45.000,0.00,0.08,-272.89,-272.93,-8,517,-952,19.6,27.5,0.3,20.2,26.9,0.5,0.54,2.04,-0.1,26.6
2016-09-19 01:38:00,0.0,1.94728,0.00049,392.058,0.085,0.7873,0.0016,139.998,45.000,31480.77653,1.96276,395.866,36.124,45.070,45.000,0.00,0.08,-272.87,-272.92,-9,517,-952,19.6,27.5,0.3,20.2,26.9,0.5,0.53,1.81,-0.1,26.6
2016-09-19 01:39:00,0.0,1.94675,0.00041,391.942,0.047,0.7892,0.0024,140.000,45.000,31480.94572,1.96226,395.758,36.128,45.070,45.000,0.00,0.08,-272.87,-272.91,-8,517,-952,19.6,27.5,0.4,20.2,26.9,0.6,0.53,1.95,-0.1,26.6
2016-09-19 01:40:00,0.0,1.94686,0.00051,391.947,0.076,0.7888,0.0023,140.001,45.000,31483.18070,1.96236,395.760,36.176,45.070,45.000,0.00,0.08,-272.89,-272.92,-7,517,-952,19.6,27.6,0.4,20.2,27.0,0.6,0.53,2.15,-0.1,26.6
2016-09-19 01:41:00,0.0,1.94665,0.00035,391.879,0.034,0.7948,0.0024,139.999,45.001,31484.13883,1.96227,395.718,36.185,45.070,45.000,0.00,0.08,-272.88,-272.92,-7,517,-952,19.6,27.7,0.5,20.2,27.1,0.6,0.54,1.96,-0.1,26.6
2016-09-19 01:42:00,0.0,1.94658,0.00034,391.878,0.066,0.7980,0.0021,140.000,45.000,31484.98821,1.96225,395.734,36.187,45.070,45.000,0.00,0.08,-272.87,-272.90,-9,517,-952,19.6,27.9,0.5,20.2,27.2,0.7,0.53,1.80,-0.1,26.6
2016-09-19 01:43:00,0.0,1.94666,0.00037,391.921,0.028,0.7966,0.0026,139.999,45.000,31485.89642,1.96229,395.772,36.206,45.070,45.000,0.00,0.08,-272.89,-272.92,-9,517,-952,19.6,27.8,0.5,20.2,27.3,0.7,0.53,2.06,-0.1,26.6
2016-09-19 01:44:00,0.0,1.94723,0.00036,391.984,0.056,0.7955,0.0026,140.000,45.000,31483.82856,1.96285,395.828,36.244,45.070,45.000,0.00,0.08,-272.88,-272.92,-8,517,-952,19.6,27.7,0.5,20.2,27.2,0.7,0.54,2.12,-0.1,26.6
2016-09-19 01:45:00,0.0,1.94701,0.00034,391.927,0.046,0.7955,0.0030,140.000,45.000,31484.45805,1.96264,395.773,36.242,45.070,45.000,0.00,0.08,-272.86,-272.91,-7,517,-952,19.6,27.7,0.5,20.2,27.2,0.7,0.53,1.85,-0.1,26.6
2016-09-19 01:46:00,0.0,1.94715,0.00043,391.922,0.059,0.7934,0.0029,139.999,45.000,31485.47822,1.96273,395.757,36.243,45.070,45.000,0.00,0.08,-272.88,-272.92,-8,517,-952,19.6,27.6,0.4,20.2,27.1,0.7,0.53,1.87,-0.1,26.6